N1IJV-10 Weather Reports


time (UTC)temp
C
wind
direction
speed
KPH
gust
KPH
rain 1hr
cm
rain 24hr
cm
rain mn
cm
humidity
%
barometer
mb
20260831115810 22 248 0.0 3.2 0.00 0.00 0.00 82 1011.1
20260831115306 22 241 3.2 3.2 0.00 0.00 0.00 82 1011.1
20260831114804 22 242 1.6 8.0 0.00 0.00 0.00 83 1010.9
20260831114259 22 242 1.6 9.7 0.00 0.00 0.00 83 1011.0
20260831113754 22 246 3.2 8.0 0.00 0.00 0.00 83 1011.0
20260831113248 22 245 3.2 4.8 0.00 0.00 0.00 83 1010.9
20260831112748 22 242 3.2 4.8 0.00 0.00 0.00 82 1011.0
20260831112243 22 243 1.6 3.2 0.00 0.00 0.00 82 1010.8
20260831111739 22 243 4.8 4.8 0.00 0.00 0.00 81 1010.8
20260831111235 22 257 3.2 9.7 0.00 0.00 0.00 81 1010.5
20260831110731 22 265 1.6 3.2 0.00 0.00 0.00 81 1010.6
20260831110226 22 263 1.6 3.2 0.00 0.00 0.00 81 1010.8
20260831105724 22 276 1.6 1.6 0.00 0.00 0.00 81 1010.7
20260831105220 22 266 3.2 4.8 0.00 0.00 0.00 80 1010.8
20260831104715 22 241 1.6 4.8 0.00 0.00 0.00 80 1010.8
20260831104211 22 249 4.8 8.0 0.00 0.00 0.00 80 1011.0
20260831103711 22 272 3.2 4.8 0.00 0.00 0.00 80 1011.0
20260831103207 22 257 3.2 3.2 0.00 0.00 0.00 81 1010.8
20260831102706 22 269 0.0 3.2 0.00 0.00 0.00 81 1011.0
20260831102201 22 259 1.6 1.6 0.00 0.00 0.00 81 1011.1
20260831101656 22 268 3.2 3.2 0.00 0.00 0.00 80 1011.0
20260831101152 23 264 1.6 4.8 0.00 0.00 0.00 79 1010.9
20260831100648 23 249 3.2 4.8 0.00 0.00 0.00 79 1010.9
20260831100144 23 259 1.6 4.8 0.00 0.00 0.00 79 1010.8
20260831095642 23 255 1.6 4.8 0.00 0.00 0.00 79 1010.8
20260831095137 23 276 1.6 3.2 0.00 0.00 0.00 80 1010.7
20260831094632 23 260 1.6 3.2 0.00 0.00 0.00 80 1010.7
20260831094129 23 264 1.6 3.2 0.00 0.00 0.00 80 1010.6
20260831093624 23 245 4.8 8.0 0.00 0.00 0.00 80 1010.7
20260831093120 23 276 0.0 4.8 0.00 0.00 0.00 80 1010.8
20260831092616 23 285 0.0 1.6 0.00 0.00 0.00 80 1011.0
20260831092111 23 277 0.0 1.6 0.00 0.00 0.00 80 1011.2
20260831091611 23 280 1.6 8.0 0.00 0.00 0.00 80 1011.0
20260831091106 23 260 1.6 3.2 0.00 0.00 0.00 80 1010.8
20260831090602 23 270 3.2 4.8 0.00 0.00 0.00 80 1011.0
20260831090058 23 282 0.0 1.6 0.00 0.00 0.00 80 1010.8
20260831085553 23 268 1.6 3.2 0.00 0.00 0.00 81 1010.9
20260831085048 23 282 1.6 1.6 0.00 0.00 0.00 82 1011.0
20260831084544 23 270 1.6 3.2 0.00 0.00 0.00 82 1011.2
20260831084040 23 282 0.0 1.6 0.00 0.00 0.00 82 1011.0
20260831083536 23 258 0.0 3.2 0.00 0.00 0.00 82 1011.2
20260831083030 23 248 0.0 3.2 0.00 0.00 0.00 83 1011.0
20260831082530 23 249 1.6 3.2 0.00 0.00 0.00 82 1011.1
20260831082025 23 250 1.6 1.6 0.00 0.00 0.00 83 1010.9
20260831081521 23 247 1.6 1.6 0.00 0.00 0.00 82 1011.0
20260831081016 23 247 0.0 3.2 0.00 0.00 0.00 82 1010.9
20260831080510 23 250 1.6 4.8 0.00 0.00 0.00 82 1010.8
20260831080007 23 240 3.2 4.8 0.00 0.00 0.00 82 1010.9
20260831075501 23 242 0.0 3.2 0.00 0.00 0.00 83 1011.0
20260831074957 23 242 1.6 3.2 0.00 0.00 0.00 82 1011.0
20260831074451 23 248 4.8 8.0 0.00 0.00 0.00 82 1010.9
20260831073950 23 241 3.2 4.8 0.00 0.00 0.00 81 1011.0
20260831073445 23 241 3.2 8.0 0.00 0.00 0.00 81 1010.9
20260831072944 23 244 1.6 4.8 0.00 0.00 0.00 81 1011.0
20260831072440 23 243 1.6 1.6 0.00 0.00 0.00 81 1010.9
20260831071937 23 242 1.6 3.2 0.00 0.00 0.00 81 1011.2
20260831071435 23 242 3.2 3.2 0.00 0.00 0.00 82 1011.2
20260831070930 23 244 0.0 1.6 0.00 0.00 0.00 82 1011.1
20260831070430 23 285 1.6 3.2 0.00 0.00 0.00 82 1011.2
20260831065929 23 244 0.0 4.8 0.00 0.00 0.00 81 1011.1
20260831065427 23 263 1.6 4.8 0.00 0.00 0.00 82 1011.0
20260831064922 23 244 1.6 3.2 0.00 0.00 0.00 83 1011.2
20260831064417 23 242 1.6 4.8 0.00 0.00 0.00 83 1011.2
20260831063913 23 244 1.6 3.2 0.00 0.00 0.00 83 1011.4
20260831063408 23 239 4.8 4.8 0.00 0.00 0.00 84 1011.2
20260831062902 23 245 1.6 3.2 0.00 0.00 0.00 85 1011.2
20260831062358 23 245 1.6 3.2 0.00 0.00 0.00 85 1011.0
20260831061856 23 245 1.6 3.2 0.00 0.00 0.00 85 1010.9
20260831061355 23 244 1.6 4.8 0.00 0.00 0.00 85 1011.0
20260831060851 23 251 1.6 4.8 0.00 0.00 0.00 85 1011.1
20260831060346 23 240 1.6 9.7 0.00 0.00 0.00 84 1011.2
20260831055845 23 241 3.2 4.8 0.00 0.00 0.00 85 1011.1
20260831055341 23 244 1.6 3.2 0.00 0.00 0.00 85 1011.1
20260831054836 23 247 3.2 3.2 0.00 0.00 0.00 85 1011.1
20260831054331 23 242 1.6 4.8 0.00 0.00 0.00 85 1010.9
20260831053830 23 240 3.2 3.2 0.00 0.00 0.00 86 1011.0
20260831053329 23 239 4.8 4.8 0.00 0.00 0.00 87 1010.9
20260831052824 23 241 1.6 9.7 0.00 0.00 0.00 86 1011.0
20260831052323 23 227 6.4 9.7 0.00 0.00 0.00 87 1010.8
20260831051821 23 234 3.2 12.9 0.00 0.00 0.00 87 1010.9
20260831051320 23 260 4.8 9.7 0.00 0.00 0.00 88 1010.9
20260831050815 23 250 1.6 9.7 0.00 0.00 0.00 89 1010.9
20260831050314 23 280 3.2 4.8 0.00 0.00 0.00 89 1011.0
20260831045808 23 249 1.6 4.8 0.00 0.53 0.53 90 1011.0
20260831045306 23 263 1.6 4.8 0.00 0.53 0.53 91 1011.0
20260831044758 23 291 1.6 3.2 0.00 0.53 0.53 92 1011.2
20260831044252 23 228 4.8 4.8 0.00 0.53 0.53 93 1011.0
20260831043749 23 260 1.6 1.6 0.00 0.53 0.53 94 1011.2
20260831043243 23 293 1.6 8.0 0.00 0.53 0.53 94 1011.3
20260831042743 23 271 4.8 4.8 0.00 0.53 0.53 95 1011.3
20260831042238 23 294 1.6 4.8 0.00 0.53 0.53 96 1011.4
20260831041733 23 300 1.6 3.2 0.00 0.53 0.53 96 1011.5
20260831041232 23 301 0.0 1.6 0.00 0.53 0.53 96 1011.8
20260831040726 23 301 1.6 3.2 0.00 0.53 0.53 97 1011.7
20260831040226 23 306 1.6 3.2 0.00 0.53 0.53 97 1011.8
20260831035719 23 300 1.6 1.6 0.00 0.53 0.53 98 1011.6
20260831035219 22 292 1.6 1.6 0.00 0.53 0.53 98 1011.8
20260831034718 22 301 0.0 1.6 0.00 0.53 0.53 99 1011.7
20260831034214 22 300 0.0 1.6 0.00 0.53 0.53 99 1012.1
20260831033709 22 305 0.0 1.6 0.00 0.53 0.53 99 1011.9
20260831033208 22 308 0.0 3.2 0.00 0.53 0.53 99 1012.3
20260831032703 22 309 0.0 1.6 0.00 0.53 0.53 99 1012.3
20260831032154 22 305 0.0 0.0 0.00 0.53 0.53 99 1012.3
20260831031653 22 312 0.0 0.0 0.00 0.53 0.53 99 1012.5
20260831031147 22 313 0.0 0.0 0.00 0.53 0.53 99 1012.7
20260831030646 22 310 1.6 1.6 0.00 0.53 0.53 99 1012.6
20260831030145 22 309 0.0 0.0 0.00 0.53 0.53 99 1012.8
20260831025643 22 313 0.0 1.6 0.00 0.53 0.53 99 1012.5
20260831025138 23 313 0.0 0.0 0.18 0.53 0.53 99 1012.6
20260831024635 23 314 0.0 1.6 0.18 0.53 0.53 98 1012.8
20260831024133 23 313 0.0 1.6 0.13 0.51 0.51 97 1012.8
20260831023632 23 303 1.6 3.2 0.13 0.51 0.51 97 1012.5
20260831023126 23 307 0.0 1.6 0.00 0.48 0.48 98 1012.5
20260831022621 23 304 0.0 1.6 0.00 0.48 0.48 98 1012.7
20260831022116 23 311 0.0 1.6 0.00 0.48 0.48 98 1012.6
20260831021615 22 300 0.0 1.6 0.00 0.48 0.48 98 1012.6
20260831021111 22 310 0.0 0.0 0.00 0.48 0.48 98 1012.8
20260831020607 22 311 0.0 0.0 0.00 0.48 0.48 98 1012.7
20260831015557 23 312 0.0 0.0 0.00 0.48 0.48 97 1013.0
20260831015051 23 306 1.6 1.6 0.00 0.48 0.48 97 1012.7
20260831014546 23 310 0.0 1.6 0.00 0.48 0.48 97 1012.6
20260831014042 22 309 0.0 1.6 0.00 0.48 0.48 98 1012.4
20260831013537 22 307 0.0 0.0 0.00 0.48 0.48 98 1012.3
20260831013032 22 305 0.0 0.0 0.00 0.48 0.48 98 1012.6
20260831012527 22 311 0.0 0.0 0.00 0.48 0.48 98 1012.4
20260831012026 22 311 0.0 0.0 0.00 0.48 0.48 98 1012.4
20260831011521 22 310 0.0 0.0 0.00 0.48 0.48 98 1012.3
20260831011016 22 308 0.0 0.0 0.00 0.48 0.48 98 1012.2
20260831010511 22 310 0.0 0.0 0.00 0.48 0.48 98 1012.2
20260831010008 22 313 0.0 0.0 0.00 0.48 0.48 97 1012.3
20260831005502 23 310 0.0 0.0 0.00 0.48 0.48 97 1012.4
20260831005001 23 309 0.0 0.0 0.00 0.48 0.48 97 1011.9
20260831004458 23 310 0.0 0.0 0.00 0.48 0.48 96 1011.9
20260831003954 23 315 0.0 0.0 0.00 0.48 0.48 96 1011.8
20260831003450 23 307 0.0 1.6 0.00 0.48 0.48 96 1011.8
20260831002949 23 316 0.0 0.0 0.00 0.48 0.48 96 1011.8
20260831002448 23 318 0.0 0.0 0.00 0.48 0.48 96 1012.1
20260831001944 23 314 0.0 0.0 0.00 0.48 0.48 96 1011.7
20260831001439 23 315 0.0 0.0 0.00 0.48 0.48 96 1012.1
20260831000936 23 313 0.0 0.0 0.00 0.48 0.48 96 1012.1
20260831000432 23 317 0.0 0.0 0.00 0.48 0.48 96 1012.2
20260830235929 23 313 0.0 0.0 0.00 0.48 0.48 95 1012.4
20260830235425 23 311 0.0 0.0 0.00 0.48 0.48 95 1012.7
20260830234920 23 315 0.0 0.0 0.00 0.48 0.48 95 1012.4
20260830234415 23 316 0.0 1.6 0.00 0.48 0.48 95 1012.3
20260830233911 23 314 0.0 1.6 0.18 0.48 0.48 94 1012.4
20260830233406 23 317 0.0 3.2 0.00 0.46 0.46 94 1012.4
20260830232902 23 313 0.0 1.6 0.00 0.46 0.46 94 1012.8
20260830232357 23 310 0.0 1.6 0.00 0.46 0.46 94 1012.6
20260830231854 23 305 1.6 3.2 0.00 0.46 0.46 94 1012.5
20260830231349 23 303 1.6 3.2 0.00 0.46 0.46 94 1012.5
20260830230848 23 253 0.0 1.6 0.00 0.46 0.46 94 1012.2
20260830230344 23 246 1.6 1.6 0.00 0.46 0.46 94 1012.5
20260830225843 23 302 0.0 0.0 0.00 0.46 0.46 92 1012.6
20260830225338 23 302 0.0 0.0 0.00 0.46 0.46 91 1012.6
20260830224832 23 299 0.0 1.6 0.00 0.46 0.46 91 1012.8
20260830224327 24 248 1.6 3.2 0.13 0.46 0.46 90 1012.9
20260830223824 23 253 3.2 3.2 0.13 0.46 0.46 88 1013.1
20260830223320 23 250 3.2 4.8 0.00 0.43 0.43 87 1012.9
20260830222813 23 259 0.0 3.2 0.00 0.43 0.43 88 1013.0
20260830222309 23 255 3.2 3.2 0.00 0.43 0.43 88 1013.0
20260830221804 23 257 1.6 3.2 0.00 0.43 0.43 90 1012.8
20260830221301 23 262 3.2 3.2 0.00 0.43 0.43 90 1012.9
20260830220756 23 260 0.0 1.6 0.00 0.43 0.43 89 1013.0
20260830220255 23 301 6.4 9.7 0.00 0.43 0.43 90 1012.9
20260830215753 23 255 0.0 1.6 0.00 0.43 0.43 93 1012.8
20260830215248 23 265 0.0 0.0 0.00 0.43 0.43 91 1012.3
20260830214743 23 304 0.0 0.0 0.18 0.43 0.43 92 1012.6
20260830214243 23 261 0.0 0.0 0.00 0.41 0.41 91 1012.5
20260830213742 23 261 0.0 0.0 0.00 0.41 0.41 90 1012.6
20260830213238 23 259 0.0 0.0 0.00 0.41 0.41 90 1012.8
20260830212734 23 257 1.6 1.6 0.00 0.41 0.41 90 1012.7
20260830212229 23 256 0.0 1.6 0.00 0.41 0.41 91 1012.9
20260830211729 23 249 3.2 3.2 0.00 0.41 0.41 90 1012.7
20260830211228 23 260 1.6 1.6 0.00 0.41 0.41 91 1012.9
20260830210724 24 253 1.6 1.6 0.00 0.41 0.41 90 1012.9
20260830210223 24 254 0.0 3.2 0.00 0.41 0.41 89 1013.1
20260830205720 24 255 0.0 1.6 0.00 0.41 0.41 89 1013.1
20260830205216 24 252 1.6 3.2 0.00 0.41 0.41 88 1013.2
20260830204710 23 252 1.6 3.2 0.00 0.41 0.41 89 1012.9
20260830204209 23 251 1.6 3.2 0.00 0.41 0.41 89 1012.7
20260830203706 23 256 0.0 1.6 0.00 0.41 0.41 90 1012.9
20260830203201 23 253 1.6 3.2 0.00 0.41 0.41 91 1012.9
20260830202701 23 256 1.6 3.2 0.00 0.41 0.41 90 1013.0
20260830202156 23 250 1.6 3.2 0.00 0.41 0.41 90 1012.7
20260830201655 23 247 1.6 1.6 0.00 0.41 0.41 90 1013.0
20260830201150 23 235 4.8 4.8 0.00 0.41 0.41 89 1012.7
20260830200646 23 241 1.6 3.2 0.00 0.41 0.41 87 1012.9
20260830200145 23 248 4.8 4.8 0.13 0.41 0.41 87 1013.1
20260830195641 23 252 3.2 4.8 0.43 0.41 0.41 88 1013.1
20260830195139 23 259 1.6 4.8 0.30 0.38 0.38 89 1013.4
20260830194637 23 243 1.6 3.2 0.18 0.33 0.33 89 1013.4
20260830194132 25 237 1.6 3.2 0.18 0.30 0.30 86 1013.3
20260830193627 25 244 1.6 3.2 0.18 0.30 0.30 84 1013.3
20260830193127 25 245 1.6 4.8 0.00 0.28 0.28 81 1013.0
20260830192623 25 248 4.8 4.8 0.00 0.28 0.28 79 1013.1
20260830192117 25 248 1.6 1.6 0.00 0.28 0.28 82 1012.9
20260830191613 25 249 0.0 1.6 0.00 0.28 0.28 82 1013.1
20260830191108 25 248 0.0 1.6 0.00 0.28 0.28 82 1012.9
20260830190604 25 259 1.6 3.2 0.00 0.28 0.28 80 1012.7
20260830190058 26 236 1.6 3.2 0.00 0.28 0.28 79 1012.9
20260830185551 26 220 3.2 3.2 0.00 0.28 0.28 76 1012.6
20260830185048 26 220 1.6 8.0 0.00 0.28 0.28 74 1012.5
20260830184546 26 261 3.2 9.7 0.00 0.28 0.28 73 1012.2
20260830184040 26 256 3.2 8.0 0.00 0.28 0.28 74 1012.2
20260830183535 27 350 4.8 12.9 0.00 0.28 0.28 74 1012.1
20260830183032 26 219 3.2 12.9 0.00 0.28 0.28 74 1012.1
20260830182527 26 245 4.8 11.3 0.00 0.28 0.28 75 1011.9
20260830182023 27 221 3.2 4.8 0.00 0.28 0.28 73 1011.7
20260830181519 27 218 3.2 9.7 0.00 0.28 0.28 71 1011.5
20260830181017 28 218 6.4 12.9 0.00 0.28 0.28 70 1011.5
20260830180512 28 259 4.8 9.7 0.00 0.28 0.28 71 1011.3
20260830180011 27 252 4.8 9.7 0.00 0.28 0.28 71 1011.6
20260830175505 27 233 8.0 9.7 0.00 0.28 0.28 71 1011.7
20260830175000 27 323 6.4 9.7 0.00 0.28 0.28 72 1011.8
20260830174455 26 250 8.0 11.3 0.00 0.28 0.28 73 1011.7
20260830173950 26 225 3.2 9.7 0.00 0.28 0.28 74 1011.8
20260830173446 26 229 1.6 4.8 0.00 0.28 0.28 74 1012.3
20260830172941 26 230 4.8 9.7 0.00 0.28 0.28 73 1012.1
20260830172438 26 231 1.6 8.0 0.00 0.28 0.28 72 1011.9
20260830171933 26 224 3.2 11.3 0.00 0.28 0.28 72 1012.2
20260830171429 26 228 3.2 11.3 0.00 0.28 0.28 75 1012.3
20260830170928 26 264 9.7 12.9 0.00 0.28 0.28 73 1012.3
20260830170428 25 230 6.4 11.3 0.00 0.28 0.28 76 1012.4
20260830165926 25 268 6.4 12.9 0.00 0.28 0.28 75 1012.4
20260830165423 25 204 6.4 9.7 0.00 0.28 0.28 76 1012.2
20260830164919 25 209 6.4 16.1 0.00 0.28 0.28 75 1012.3
20260830164415 25 237 8.0 16.1 0.00 0.28 0.28 75 1012.3
20260830163911 25 233 8.0 16.1 0.00 0.28 0.28 77 1012.1
20260830163407 25 211 6.4 9.7 0.00 0.28 0.28 77 1012.1
20260830162906 25 213 3.2 11.3 0.00 0.28 0.28 78 1012.2
20260830162402 25 265 9.7 12.9 0.00 0.28 0.28 77 1012.3
20260830161857 25 211 4.8 8.0 0.00 0.28 0.28 77 1012.3
20260830161356 25 207 6.4 9.7 0.00 0.28 0.28 78 1012.4
20260830160852 24 210 6.4 12.9 0.00 0.28 0.28 78 1012.3
20260830160348 25 241 6.4 14.5 0.00 0.28 0.28 78 1012.5
20260830155843 23 227 1.6 9.7 0.00 0.28 0.28 80 1012.3
20260830155339 24 218 9.7 17.7 0.00 0.28 0.28 78 1012.6
20260830154839 24 216 11.3 20.9 0.00 0.28 0.28 78 1012.5
20260830154335 25 278 11.3 17.7 0.00 0.28 0.28 78 1012.3
20260830153832 25 267 4.8 8.0 0.00 0.28 0.28 79 1012.2
20260830153327 25 235 4.8 9.7 0.00 0.28 0.28 81 1012.5
20260830152825 24 230 3.2 8.0 0.00 0.28 0.28 81 1012.1
20260830152320 24 253 4.8 9.7 0.00 0.28 0.28 81 1012.2
20260830151815 24 232 4.8 9.7 0.00 0.28 0.28 83 1012.3
20260830151314 23 299 8.0 9.7 0.00 0.28 0.28 83 1012.1
20260830150809 23 223 3.2 4.8 0.00 0.28 0.28 84 1011.6
20260830150309 23 253 1.6 3.2 0.00 0.28 0.28 85 1011.7
20260830145803 23 218 1.6 8.0 0.00 0.28 0.28 86 1011.7
20260830145259 22 229 4.8 12.9 0.00 0.28 0.28 86 1011.7
20260830144754 22 241 6.4 20.9 0.00 0.28 0.28 87 1011.8
20260830144249 22 224 1.6 9.7 0.00 0.28 0.28 89 1012.1
20260830143745 21 225 0.0 8.0 0.00 0.28 0.28 91 1012.3
20260830143244 21 214 3.2 11.3 0.00 0.28 0.28 92 1012.3
20260830142738 21 228 1.6 8.0 0.00 0.28 0.28 92 1012.5
20260830142234 21 271 4.8 9.7 0.00 0.28 0.28 93 1012.5
20260830141729 20 191 8.0 11.3 0.00 0.28 0.28 93 1012.5
20260830141224 20 220 4.8 8.0 0.00 0.28 0.28 94 1012.5
20260830140713 20 233 4.8 8.0 0.00 0.28 0.28 95 1012.6
20260830140208 20 250 4.8 8.0 0.00 0.28 0.28 96 1012.5
20260830135703 20 244 3.2 3.2 0.00 0.28 0.28 96 1012.6
20260830135158 20 239 3.2 8.0 0.00 0.28 0.28 97 1012.8
20260830134654 20 234 3.2 4.8 0.00 0.28 0.28 98 1012.8
20260830134149 20 221 1.6 1.6 0.00 0.28 0.28 98 1012.6
20260830133645 20 257 4.8 8.0 0.00 0.28 0.28 98 1012.8
20260830133140 20 217 3.2 9.7 0.00 0.28 0.28 98 1012.7
20260830132636 19 230 3.2 4.8 0.00 0.28 0.28 99 1013.1
20260830132132 19 232 3.2 3.2 0.00 0.28 0.28 99 1013.2
20260830131630 19 229 3.2 3.2 0.00 0.28 0.28 99 1013.4
20260830131125 19 244 0.0 1.6 0.00 0.28 0.28 99 1013.4
20260830130620 19 236 0.0 0.0 0.13 0.28 0.28 99 1013.5
20260830130115 19 242 1.6 3.2 0.18 0.25 0.25 98 1013.5
20260830125614 19 241 0.0 1.6 0.00 0.23 0.23 98 1013.6
20260830125114 19 234 0.0 3.2 0.00 0.23 0.23 98 1013.7
20260830124613 19 235 1.6 3.2 0.13 0.23 0.23 98 1013.8
20260830124108 19 239 0.0 0.0 0.30 0.23 0.23 97 1013.9
20260830123606 19 232 0.0 1.6 0.30 0.20 0.20 97 1013.9
20260830123101 19 241 0.0 1.6 0.13 0.18 0.18 96 1014.0
20260830122557 19 232 1.6 4.8 0.00 0.15 0.15 96 1013.7
20260830122053 19 236 1.6 1.6 0.18 0.15 0.15 96 1013.7
20260830121549 20 228 1.6 1.6 0.18 0.15 0.15 96 1013.6
20260830121048 20 239 1.6 3.2 0.13 0.13 0.13 95 1013.4
20260830120543 20 238 1.6 1.6 0.30 0.13 0.13 95 1013.5
20260830120040 20 237 1.6 4.8 0.30 0.10 0.10 94 1013.5